Regional Weather Roundup
Issued by NWS

Home | Current Version | Previous Version | Text Only | Print | Product List | Glossary Off
Versions: 1 2 3 4 5 6 7 8 9 10 11 12 13 14 15 16 17 18 19 20 21 22 23 24 25 26 27

000
ASUS45 KBOU 161107
RWRCO

WEATHER ROUNDUP FOR COLORADO
NATIONAL WEATHER SERVICE DENVER/BOULDER CO
500 AM MDT WED AUG 16 2017

NOTE: "FAIR" INDICATES FEW OR NO CLOUDS BELOW 12000 FEET WITH NO
SIGNIFICANT WEATHER AND/OR OBSTRUCTIONS TO VISIBILITY.

COZ001>005-013-030-031-161200-
...NORTHWEST COLORADO...

CITY           SKY/WX    TMP DP  RH WIND       PRES   REMARKS
CRAIG          FAIR      42  39  89 CALM      30.16S
HAYDEN         FAIR      48  46  93 E7        30.19S
MEEKER         FAIR      49  46  90 NE6       30.16S
RABBIT EARS PA PTSUNNY   37  36  93 W8        30.34F
STEAMBOAT SPGS FAIR      45  44  97 CALM      30.18S
WALDEN         CLOUDY    41  37  87 CALM      30.25R
$$

COZ006>008-011-161200-
...WEST CENTRAL VALLEYS...

CITY           SKY/WX    TMP DP  RH WIND       PRES   REMARKS
GRAND JUNCTION MOCLDY    61  45  55 CALM      30.05R
MONTROSE       CLOUDY    58  37  45 SE10      30.13R
EAGLE          FAIR      53  46  77 CALM      30.20R
RIFLE          FAIR      55  44  66 NE3       30.11S
DELTA          NOT AVBL
NUCLA          FAIR      54  32  43 CALM      30.16R
$$

COZ017>023-064>068-161200-
...SOUTHWEST COLORADO...

CITY           SKY/WX    TMP DP  RH WIND       PRES   REMARKS
DURANGO        FAIR      47  34  60 N3        30.17R
CORTEZ         FAIR      44  35  70 CALM      30.13R
PAGOSA SPRINGS FAIR      44  31  61 CALM      30.23S
TELLURIDE      CLOUDY   N/A N/A N/A CALM      30.33
WOLF CREEK PAS FAIR      37  27  65 W7        30.49S
$$

COZ009-010-012-014-032>034-037-058>063-161200-
...CENTRAL COLORADO...

CITY           SKY/WX    TMP DP  RH WIND       PRES   REMARKS
ASPEN          CLOUDY    51  39  63 SW3       30.21S
BUENA VISTA    FAIR      55  34  45 NW12      30.21R
COPPER MTN     SNOW      37  34  87 MISG      30.43S VSB<1/4
BERTHOUD PASS  CLOUDY    32  27  80 NW24G30   30.41S WCI  19
COTTONWOOD PAS MOCLDY    52  28  40 NW6       30.31S
GUNNISON       FAIR      48  41  76 CALM      30.23R
KREMMLING      FAIR      50  45  81 CALM      30.22S
LEADVILLE      MOCLDY    41  35  79 N10       30.31F
MONARCH PASS   CLOUDY    37  27  65 W17       30.52S
SALIDA         MOCLDY    57  35  42 NW5       30.25S
SUNLIGHT       CLOUDY    41  32  70 W3        30.40F
WILKERSON PASS CLOUDY    41  30  65 NW9G16    30.40S
$$

COZ069>075-161200-
...SAN LUIS VALLEY/SANGRE DE CRISTO MOUNTAINS...

CITY           SKY/WX    TMP DP  RH WIND       PRES   REMARKS
ALAMOSA        FAIR      45  36  70 CALM      30.19R
DEL NORTE      FAIR      48  32  54 SW12      30.23R
LA VETA PASS   NOT AVBL
SAGUACHE       FAIR      46  34  61 N8        30.22R
$$

COZ035-036-038>040-161200-
...NORTHERN COLORADO FRONT RANGE...

CITY           SKY/WX    TMP DP  RH WIND       PRES   REMARKS
DENVER INTL AP MOCLDY    59  53  80 W8        30.07R
DMNS CITY PARK   N/A     59  54  84 NW3       30.07S
AURORA         MOCLDY    56  52  85 W3        30.08R
FRONT RANGE AP CLOUDY    59  54  82 W7        30.09R
ERIE MUNI ARPT LGT RAIN  59  55  87 CALM      30.08F
BOULDER MUN AP CLOUDY    59  54  82 CALM      30.05F
CENTENNIAL     MOCLDY    57  50  77 W6        30.09R
BROOMFIELD     NOT AVBL
FORT COLLINS   FAIR      59  55  87 NE5       30.05F
LONGMONT       CLOUDY    60  55  83 SW5       30.05F
$$

COZ041-046-047-076>085-087-088-161200-
...PIKES PEAK/PALMER DIVIDE AND SOUTHERN FOOTHILLS...

CITY           SKY/WX    TMP DP  RH WIND       PRES   REMARKS
COLO. SPRINGS  CLOUDY    60  48  64 N9        30.11R
A. F. ACADEMY  CLOUDY    55  47  75 N8        30.13R
SCHRIEVER AFB  MOCLDY    58  46  66 N14       30.10R
CHEYENNE MTN   CLOUDY    58  43  57 N3        30.09R
ELLICOTT       CLOUDY   N/A N/A N/A NW9       30.09R
FALCON         CLOUDY    55  45  67 NW8       30.14S
FORT CARSON    FAIR      58  50  76 NW5       30.08R
LIMON          FAIR      51  50  96 NW5       30.06R
MONUMENT HILL  CLOUDY    52  45  76 N3        30.17R
CANON CITY     PTCLDY    63  54  72 NE8       30.06R
WALSENBURG     NOT AVBL
TRINIDAD       FAIR      56  48  74 CALM      30.10S
$$

COZ042>045-048>051-090-091-161200-
...NORTHEAST COLORADO...

CITY           SKY/WX    TMP DP  RH WIND       PRES   REMARKS
GREELEY ARPT   FAIR      58  51  78 NW5       30.04S
AKRON          FAIR      55  51  86 W5        30.02R
BURLINGTON     FAIR      60  57  89 NE10      29.96F
WRAY           NOT AVBL
YUMA           CLOUDY    57  55  94 NW3       30.00R
STERLING       FAIR      59  55  88 NW6       29.99R
HOLYOKE        FAIR      61  59  94 W3        29.95R
FORT MORGAN    FAIR      56  50  80 N8        30.02S
$$

COZ086-089-092>099-161200-
...SOUTHEAST COLORADO...

CITY           SKY/WX    TMP DP  RH WIND       PRES   REMARKS
PUEBLO         MOCLDY    63  51  65 NE3       30.04R
LA JUNTA       FAIR      61  54  77 W7        30.01R
LAMAR          CLOUDY    62  56  80 S3        29.96R
SPRINGFIELD      N/A     57  55  93 N10       29.98R
$$




USA.gov is the U.S. government's official web portal to all federal, state and local government web resources and services.